Time,TemperatureF,DewpointF,PressureIn,WindDirection,WindDirectionDegrees,WindSpeedMPH,WindSpeedGustMPH,Humidity,HourlyPrecipIn,Conditions,Clouds,dailyrainin,SolarRadiationWatts/m^2,SoftwareType,DateUTC
2013-05-14 00:01:00,43.9,25.5,30.10,NW,316,0.0,4.0,48,0.00,,,0.00,0,Wunderground v.1.15,2013-05-14 04:01:00,
2013-05-14 00:05:00,43.8,25.4,30.10,NNW,340,1.0,4.0,48,0.00,,,0.00,0,Wunderground v.1.15,2013-05-14 04:05:00,
2013-05-14 00:06:00,43.8,25.4,30.10,NNW,339,2.0,4.0,48,0.00,,,0.00,0,Wunderground v.1.15,2013-05-14 04:06:00,
2013-05-14 00:08:00,43.8,25.9,30.10,WNW,300,2.0,4.0,49,0.00,,,0.00,0,Wunderground v.1.15,2013-05-14 04:08:00,
2013-05-14 00:12:00,43.8,25.9,30.10,NW,306,2.0,3.0,49,0.00,,,0.00,0,Wunderground v.1.15,2013-05-14 04:12:00,
2013-05-14 00:17:00,43.7,25.8,30.10,NW,311,1.0,4.0,49,0.00,,,0.00,0,Wunderground v.1.15,2013-05-14 04:17:00,
2013-05-14 00:22:00,43.7,25.8,30.10,NNW,344,1.0,4.0,49,0.00,,,0.00,0,Wunderground v.1.15,2013-05-14 04:22:00,
2013-05-14 00:27:00,43.7,25.8,30.10,NW,321,3.0,4.0,49,0.00,,,0.00,0,Wunderground v.1.15,2013-05-14 04:27:00,
2013-05-14 00:33:00,43.9,26.0,30.10,NNW,331,5.0,5.0,49,0.00,,,0.00,0,Wunderground v.1.15,2013-05-14 04:33:00,
2013-05-14 00:39:00,44.0,26.0,30.10,North,351,4.0,5.0,49,0.00,,,0.00,0,Wunderground v.1.15,2013-05-14 04:39:00,
2013-05-14 00:44:00,43.9,26.0,30.10,NNW,331,5.0,5.0,49,0.00,,,0.00,0,Wunderground v.1.15,2013-05-14 04:44:00,
2013-05-14 00:49:00,43.9,26.0,30.10,NW,318,4.0,7.0,49,0.00,,,0.00,0,Wunderground v.1.15,2013-05-14 04:49:00,
2013-05-14 00:54:00,44.1,26.1,30.10,North,357,3.0,6.0,49,0.00,,,0.00,0,Wunderground v.1.15,2013-05-14 04:54:00,
2013-05-14 01:00:00,44.1,26.1,30.11,WNW,302,2.0,2.0,49,0.00,,,0.00,0,Wunderground v.1.15,2013-05-14 05:00:00,
2013-05-14 01:06:00,44.1,26.1,30.11,NNW,334,0.0,3.0,49,0.00,,,0.00,0,Wunderground v.1.15,2013-05-14 05:06:00,
2013-05-14 01:11:00,44.1,26.1,30.11,North,353,3.0,4.0,49,0.00,,,0.00,0,Wunderground v.1.15,2013-05-14 05:11:00,
2013-05-14 01:16:00,43.9,26.4,30.11,North,350,2.0,4.0,50,0.00,,,0.00,0,Wunderground v.1.15,2013-05-14 05:16:00,
2013-05-14 01:22:00,43.8,26.3,30.10,NNW,333,4.0,4.0,50,0.00,,,0.00,0,Wunderground v.1.15,2013-05-14 05:22:00,
2013-05-14 01:28:00,43.5,26.1,30.10,NW,321,5.0,5.0,50,0.00,,,0.00,0,Wunderground v.1.15,2013-05-14 05:28:00,
2013-05-14 01:33:00,43.4,26.5,30.10,North,352,1.0,6.0,51,0.00,,,0.00,0,Wunderground v.1.15,2013-05-14 05:33:00,
2013-05-14 01:39:00,43.2,26.3,30.10,North,0,1.0,6.0,51,0.00,,,0.00,0,Wunderground v.1.15,2013-05-14 05:39:00,
2013-05-14 01:44:00,43.0,26.1,30.10,NNW,344,1.0,1.0,51,0.00,,,0.00,0,Wunderground v.1.15,2013-05-14 05:44:00,
2013-05-14 01:49:00,42.8,26.4,30.10,NW,326,0.0,4.0,52,0.00,,,0.00,0,Wunderground v.1.15,2013-05-14 05:49:00,
2013-05-14 01:55:00,42.5,26.1,30.11,NW,325,0.0,5.0,52,0.00,,,0.00,0,Wunderground v.1.15,2013-05-14 05:55:00,
2013-05-14 02:01:00,42.3,25.9,30.10,NW,326,0.0,0.0,52,0.00,,,0.00,0,Wunderground v.1.15,2013-05-14 06:01:00,
2013-05-14 02:06:00,42.1,26.6,30.10,NW,325,2.0,4.0,54,0.00,,,0.00,0,Wunderground v.1.15,2013-05-14 06:06:00,
2013-05-14 02:11:00,42.0,27.4,30.10,NW,325,2.0,2.0,56,0.00,,,0.00,0,Wunderground v.1.15,2013-05-14 06:11:00,
2013-05-14 02:16:00,41.9,24.6,30.11,NW,323,0.0,4.0,50,0.00,,,0.00,0,Wunderground v.1.15,2013-05-14 06:16:00,
2013-05-14 02:21:00,41.5,22.7,30.10,NW,323,1.0,3.0,47,0.00,,,0.00,0,Wunderground v.1.15,2013-05-14 06:21:00,
2013-05-14 02:26:00,41.3,22.6,30.10,NW,323,0.0,5.0,47,0.00,,,0.00,0,Wunderground v.1.15,2013-05-14 06:26:00,
2013-05-14 02:31:00,41.3,22.6,30.10,NW,323,0.0,2.0,47,0.00,,,0.00,0,Wunderground v.1.15,2013-05-14 06:31:00,
2013-05-14 02:36:00,41.3,23.1,30.10,NW,323,0.0,4.0,48,0.00,,,0.00,0,Wunderground v.1.15,2013-05-14 06:36:00,
2013-05-14 02:41:00,41.3,23.6,30.10,NW,318,0.0,3.0,49,0.00,,,0.00,0,Wunderground v.1.15,2013-05-14 06:41:00,
2013-05-14 02:46:00,41.3,23.6,30.10,NW,318,0.0,3.0,49,0.00,,,0.00,0,Wunderground v.1.15,2013-05-14 06:46:00,
2013-05-14 02:51:00,41.1,23.4,30.10,NW,318,0.0,1.0,49,0.00,,,0.00,0,Wunderground v.1.15,2013-05-14 06:51:00,
2013-05-14 02:56:00,40.6,23.4,30.11,NW,318,0.0,2.0,50,0.00,,,0.00,0,Wunderground v.1.15,2013-05-14 06:56:00,
2013-05-14 03:01:00,40.5,25.1,30.11,NW,318,0.0,2.0,54,0.00,,,0.00,0,Wunderground v.1.15,2013-05-14 07:01:00,
2013-05-14 03:06:00,40.4,25.1,30.11,NW,310,0.0,5.0,54,0.00,,,0.00,0,Wunderground v.1.15,2013-05-14 07:06:00,
2013-05-14 03:11:00,40.6,25.2,30.11,NW,310,0.0,2.0,54,0.00,,,0.00,0,Wunderground v.1.15,2013-05-14 07:11:00,
2013-05-14 03:16:00,40.3,25.4,30.11,NW,305,0.0,4.0,55,0.00,,,0.00,0,Wunderground v.1.15,2013-05-14 07:16:00,
2013-05-14 03:21:00,40.3,25.8,30.12,NW,305,1.0,4.0,56,0.00,,,0.00,0,Wunderground v.1.15,2013-05-14 07:21:00,
2013-05-14 03:26:00,40.2,25.7,30.11,WNW,286,2.0,7.0,56,0.00,,,0.00,0,Wunderground v.1.15,2013-05-14 07:26:00,
2013-05-14 03:31:00,40.4,25.5,30.11,WNW,302,2.0,4.0,55,0.00,,,0.00,0,Wunderground v.1.15,2013-05-14 07:31:00,
2013-05-14 03:36:00,40.3,25.8,30.11,NW,314,3.0,5.0,56,0.00,,,0.00,0,Wunderground v.1.15,2013-05-14 07:36:00,
2013-05-14 03:41:00,40.6,26.1,30.11,NNW,344,2.0,4.0,56,0.00,,,0.00,0,Wunderground v.1.15,2013-05-14 07:41:00,
2013-05-14 03:46:00,40.6,25.7,30.11,NNW,340,1.0,4.0,55,0.00,,,0.00,0,Wunderground v.1.15,2013-05-14 07:46:00,
2013-05-14 03:51:00,40.3,25.8,30.11,NNW,339,1.0,2.0,56,0.00,,,0.00,0,Wunderground v.1.15,2013-05-14 07:51:00,
2013-05-14 03:56:00,40.3,25.8,30.11,NNW,337,1.0,4.0,56,0.00,,,0.00,0,Wunderground v.1.15,2013-05-14 07:56:00,
2013-05-14 04:01:00,40.0,25.6,30.11,NNW,337,0.0,2.0,56,0.00,,,0.00,0,Wunderground v.1.15,2013-05-14 08:01:00,
2013-05-14 04:06:00,39.9,24.6,30.11,NNW,342,0.0,5.0,54,0.00,,,0.00,0,Wunderground v.1.15,2013-05-14 08:06:00,
2013-05-14 04:11:00,39.6,23.4,30.11,NNW,337,0.0,0.0,52,0.00,,,0.00,0,Wunderground v.1.15,2013-05-14 08:11:00,
2013-05-14 04:16:00,39.5,23.3,30.11,NNW,337,0.0,0.0,52,0.00,,,0.00,0,Wunderground v.1.15,2013-05-14 08:16:00,
2013-05-14 04:22:00,39.1,23.8,30.11,NNW,337,0.0,0.0,54,0.00,,,0.00,0,Wunderground v.1.15,2013-05-14 08:22:00,
2013-05-14 04:27:00,38.7,22.6,30.11,NNW,337,0.0,1.0,52,0.00,,,0.00,0,Wunderground v.1.15,2013-05-14 08:27:00,
2013-05-14 04:32:00,38.1,22.0,30.11,NNW,337,0.0,0.0,52,0.00,,,0.00,0,Wunderground v.1.15,2013-05-14 08:32:00,
2013-05-14 04:37:00,37.6,24.6,30.11,NNW,337,0.0,1.0,59,0.00,,,0.00,0,Wunderground v.1.15,2013-05-14 08:37:00,
2013-05-14 04:42:00,37.4,24.0,30.11,NNW,337,0.0,0.0,58,0.00,,,0.00,0,Wunderground v.1.15,2013-05-14 08:42:00,
2013-05-14 04:47:00,37.0,24.4,30.11,NNW,337,0.0,0.0,60,0.00,,,0.00,0,Wunderground v.1.15,2013-05-14 08:47:00,
2013-05-14 04:52:00,36.8,25.4,30.11,NNW,337,0.0,0.0,63,0.00,,,0.00,0,Wunderground v.1.15,2013-05-14 08:52:00,
2013-05-14 04:57:00,36.3,26.4,30.11,NNW,337,0.0,0.0,67,0.00,,,0.00,0,Wunderground v.1.15,2013-05-14 08:57:00,
2013-05-14 05:02:00,36.2,26.6,30.11,NNW,337,0.0,0.0,68,0.00,,,0.00,0,Wunderground v.1.15,2013-05-14 09:02:00,
2013-05-14 05:07:00,35.7,24.7,30.11,NNW,337,0.0,0.0,64,0.00,,,0.00,0,Wunderground v.1.15,2013-05-14 09:07:00,
2013-05-14 05:12:00,35.5,24.9,30.11,NNW,337,0.0,1.0,65,0.00,,,0.00,0,Wunderground v.1.15,2013-05-14 09:12:00,
2013-05-14 05:17:00,35.1,22.6,30.11,NNW,337,0.0,1.0,60,0.00,,,0.00,0,Wunderground v.1.15,2013-05-14 09:17:00,
2013-05-14 05:22:00,35.1,22.2,30.11,NNW,337,0.0,0.0,59,0.00,,,0.00,0,Wunderground v.1.15,2013-05-14 09:22:00,
2013-05-14 05:27:00,35.1,21.4,30.11,NNW,337,0.0,1.0,57,0.00,,,0.00,0,Wunderground v.1.15,2013-05-14 09:27:00,
2013-05-14 05:32:00,34.8,21.5,30.11,NNW,337,0.0,0.0,58,0.00,,,0.00,0,Wunderground v.1.15,2013-05-14 09:32:00,
2013-05-14 05:37:00,34.9,21.6,30.12,NNW,337,1.0,1.0,58,0.00,,,0.00,0,Wunderground v.1.15,2013-05-14 09:37:00,
2013-05-14 05:42:00,34.9,22.0,30.11,NNW,336,0.0,2.0,59,0.00,,,0.00,0,Wunderground v.1.15,2013-05-14 09:42:00,
2013-05-14 05:47:00,34.8,22.7,30.12,NNW,336,0.0,2.0,61,0.00,,,0.00,0,Wunderground v.1.15,2013-05-14 09:47:00,
2013-05-14 05:52:00,34.7,23.0,30.12,NNW,336,1.0,1.0,62,0.00,,,0.00,0,Wunderground v.1.15,2013-05-14 09:52:00,
2013-05-14 05:57:00,34.8,23.9,30.12,NNW,336,0.0,2.0,64,0.00,,,0.00,0,Wunderground v.1.15,2013-05-14 09:57:00,
2013-05-14 06:02:00,34.7,23.8,30.12,NNW,336,1.0,1.0,64,0.00,,,0.00,0,Wunderground v.1.15,2013-05-14 10:02:00,
2013-05-14 06:08:00,34.7,24.1,30.12,NNW,335,1.0,1.0,65,0.00,,,0.00,0,Wunderground v.1.15,2013-05-14 10:08:00,
2013-05-14 06:13:00,34.7,24.1,30.12,NNW,335,0.0,0.0,65,0.00,,,0.00,0,Wunderground v.1.15,2013-05-14 10:13:00,
2013-05-14 06:18:00,34.9,24.3,30.12,NNW,335,1.0,2.0,65,0.00,,,0.00,0,Wunderground v.1.15,2013-05-14 10:18:00,
2013-05-14 06:23:00,35.2,24.6,30.12,NNW,335,0.0,1.0,65,0.00,,,0.00,0,Wunderground v.1.15,2013-05-14 10:23:00,
2013-05-14 06:28:00,35.3,25.1,30.13,NNW,335,2.0,2.0,66,0.00,,,0.00,0,Wunderground v.1.15,2013-05-14 10:28:00,
2013-05-14 06:33:00,35.8,25.5,30.13,NNW,335,0.0,1.0,66,0.00,,,0.00,0,Wunderground v.1.15,2013-05-14 10:33:00,
2013-05-14 06:38:00,36.2,25.9,30.13,NNW,335,0.0,3.0,66,0.00,,,0.00,0,Wunderground v.1.15,2013-05-14 10:38:00,
2013-05-14 06:44:00,36.6,26.3,30.13,NNW,335,0.0,1.0,66,0.00,,,0.00,0,Wunderground v.1.15,2013-05-14 10:44:00,
2013-05-14 06:49:00,37.0,26.3,30.13,NNW,335,0.0,1.0,65,0.00,,,0.00,0,Wunderground v.1.15,2013-05-14 10:49:00,
2013-05-14 06:54:00,37.8,27.1,30.13,NNW,330,2.0,4.0,65,0.00,,,0.00,0,Wunderground v.1.15,2013-05-14 10:54:00,
2013-05-14 06:59:00,38.9,28.9,30.13,NW,313,0.0,6.0,67,0.00,,,0.00,0,Wunderground v.1.15,2013-05-14 10:59:00,
2013-05-14 07:04:00,39.7,28.9,30.13,NW,315,2.0,6.0,65,0.00,,,0.00,0,Wunderground v.1.15,2013-05-14 11:04:00,
2013-05-14 07:09:00,40.4,28.0,30.14,West,262,1.0,6.0,61,0.00,,,0.00,0,Wunderground v.1.15,2013-05-14 11:09:00,
2013-05-14 07:14:00,41.4,28.1,30.14,WNW,301,5.0,5.0,59,0.00,,,0.00,0,Wunderground v.1.15,2013-05-14 11:14:00,
2013-05-14 07:20:00,42.0,29.5,30.14,NW,308,2.0,2.0,61,0.00,,,0.00,0,Wunderground v.1.15,2013-05-14 11:20:00,
2013-05-14 07:25:00,42.4,29.1,30.14,NW,321,1.0,9.0,59,0.00,,,0.00,0,Wunderground v.1.15,2013-05-14 11:25:00,
2013-05-14 07:30:00,42.8,29.5,30.14,NW,306,6.0,6.0,59,0.00,,,0.00,0,Wunderground v.1.15,2013-05-14 11:30:00,
2013-05-14 07:35:00,43.3,29.1,30.14,NW,307,5.0,7.0,57,0.00,,,0.00,0,Wunderground v.1.15,2013-05-14 11:35:00,
2013-05-14 07:39:00,43.5,29.3,30.14,NW,310,0.0,7.0,57,0.00,,,0.00,0,Wunderground v.1.15,2013-05-14 11:39:00,
2013-05-14 07:45:00,44.0,29.3,30.14,NW,308,1.0,6.0,56,0.00,,,0.00,0,Wunderground v.1.15,2013-05-14 11:45:00,
2013-05-14 07:50:00,44.3,29.1,30.14,WNW,300,4.0,4.0,55,0.00,,,0.00,0,Wunderground v.1.15,2013-05-14 11:50:00,
2013-05-14 07:55:00,44.8,29.6,30.14,NW,318,1.0,6.0,55,0.00,,,0.00,0,Wunderground v.1.15,2013-05-14 11:55:00,
2013-05-14 08:00:00,45.4,30.2,30.14,NW,326,6.0,6.0,55,0.00,,,0.00,0,Wunderground v.1.15,2013-05-14 12:00:00,
2013-05-14 08:05:00,45.7,29.1,30.13,NW,311,3.0,8.0,52,0.00,,,0.00,0,Wunderground v.1.15,2013-05-14 12:05:00,
2013-05-14 08:10:00,45.9,28.3,30.14,WNW,293,4.0,5.0,50,0.00,,,0.00,0,Wunderground v.1.15,2013-05-14 12:10:00,
2013-05-14 08:15:00,46.4,28.3,30.14,North,7,5.0,7.0,49,0.00,,,0.00,0,Wunderground v.1.15,2013-05-14 12:15:00,
2013-05-14 08:20:00,46.9,28.2,30.14,WNW,299,3.0,3.0,48,0.00,,,0.00,0,Wunderground v.1.15,2013-05-14 12:20:00,
2013-05-14 08:25:00,47.2,28.0,30.14,NW,316,1.0,7.0,47,0.00,,,0.00,0,Wunderground v.1.15,2013-05-14 12:25:00,
2013-05-14 08:30:00,47.4,28.2,30.14,North,351,3.0,3.0,47,0.00,,,0.00,0,Wunderground v.1.15,2013-05-14 12:30:00,
2013-05-14 08:35:00,47.8,28.0,30.14,NNW,338,3.0,9.0,46,0.00,,,0.00,0,Wunderground v.1.15,2013-05-14 12:35:00,
2013-05-14 08:40:00,48.3,29.0,30.14,NNW,341,7.0,7.0,47,0.00,,,0.00,0,Wunderground v.1.15,2013-05-14 12:40:00,
2013-05-14 08:45:00,48.6,28.2,30.14,NNW,332,6.0,13.0,45,0.00,,,0.00,0,Wunderground v.1.15,2013-05-14 12:45:00,
2013-05-14 08:50:00,49.0,28.0,30.14,NNW,337,3.0,6.0,44,0.00,,,0.00,0,Wunderground v.1.15,2013-05-14 12:50:00,
2013-05-14 08:55:00,49.4,28.4,30.14,North,0,3.0,7.0,44,0.00,,,0.00,0,Wunderground v.1.15,2013-05-14 12:55:00,
2013-05-14 09:00:00,49.9,28.3,30.13,North,359,3.0,4.0,43,0.00,,,0.00,0,Wunderground v.1.15,2013-05-14 13:00:00,
2013-05-14 09:05:00,50.2,28.0,30.14,NNW,329,5.0,8.0,42,0.00,,,0.00,0,Wunderground v.1.15,2013-05-14 13:05:00,
2013-05-14 09:10:00,50.4,28.1,30.13,NNW,345,4.0,6.0,42,0.00,,,0.00,0,Wunderground v.1.15,2013-05-14 13:10:00,
2013-05-14 09:15:00,50.4,27.0,30.13,West,259,5.0,7.0,40,0.00,,,0.00,0,Wunderground v.1.15,2013-05-14 13:15:00,
2013-05-14 09:20:00,50.5,27.7,30.13,NNE,16,3.0,3.0,41,0.00,,,0.00,0,Wunderground v.1.15,2013-05-14 13:20:00,
2013-05-14 09:25:00,50.6,27.7,30.13,NW,318,5.0,9.0,41,0.00,,,0.00,0,Wunderground v.1.15,2013-05-14 13:25:00,
2013-05-14 09:30:00,50.7,26.6,30.13,NNE,25,3.0,3.0,39,0.00,,,0.00,0,Wunderground v.1.15,2013-05-14 13:30:00,
2013-05-14 09:35:00,51.5,27.3,30.13,NNW,339,1.0,8.0,39,0.00,,,0.00,0,Wunderground v.1.15,2013-05-14 13:35:00,
2013-05-14 09:40:00,52.1,28.5,30.13,SW,234,5.0,5.0,40,0.00,,,0.00,0,Wunderground v.1.15,2013-05-14 13:40:00,
2013-05-14 09:45:00,52.5,28.2,30.13,WNW,301,2.0,11.0,39,0.00,,,0.00,0,Wunderground v.1.15,2013-05-14 13:45:00,
2013-05-14 09:50:00,52.7,28.4,30.13,NW,311,1.0,3.0,39,0.00,,,0.00,0,Wunderground v.1.15,2013-05-14 13:50:00,
2013-05-14 09:55:00,53.0,27.4,30.13,WNW,292,6.0,6.0,37,0.00,,,0.00,0,Wunderground v.1.15,2013-05-14 13:55:00,
2013-05-14 10:00:00,52.5,26.9,30.13,NNW,340,4.0,8.0,37,0.00,,,0.00,0,Wunderground v.1.15,2013-05-14 14:00:00,
2013-05-14 10:05:00,52.9,27.3,30.13,North,358,1.0,11.0,37,0.00,,,0.00,0,Wunderground v.1.15,2013-05-14 14:05:00,
2013-05-14 10:10:00,53.9,27.5,30.13,WNW,295,2.0,5.0,36,0.00,,,0.00,0,Wunderground v.1.15,2013-05-14 14:10:00,
2013-05-14 10:15:00,53.6,25.9,30.13,NNE,13,6.0,13.0,34,0.00,,,0.00,0,Wunderground v.1.15,2013-05-14 14:15:00,
2013-05-14 10:20:00,53.7,27.4,30.13,WNW,297,6.0,6.0,36,0.00,,,0.00,0,Wunderground v.1.15,2013-05-14 14:20:00,
2013-05-14 10:25:00,53.9,26.1,30.13,NW,321,3.0,11.0,34,0.00,,,0.00,0,Wunderground v.1.15,2013-05-14 14:25:00,
2013-05-14 10:30:00,54.1,25.6,30.13,SW,230,2.0,7.0,33,0.00,,,0.00,0,Wunderground v.1.15,2013-05-14 14:30:00,
2013-05-14 10:35:00,53.9,26.1,30.13,NNE,28,0.0,13.0,34,0.00,,,0.00,0,Wunderground v.1.15,2013-05-14 14:35:00,
2013-05-14 10:40:00,54.5,26.0,30.13,West,276,2.0,2.0,33,0.00,,,0.00,0,Wunderground v.1.15,2013-05-14 14:40:00,
2013-05-14 10:45:00,55.0,26.4,30.13,NNW,334,2.0,7.0,33,0.00,,,0.00,0,Wunderground v.1.15,2013-05-14 14:45:00,
2013-05-14 10:50:00,54.8,25.5,30.13,South,171,2.0,5.0,32,0.00,,,0.00,0,Wunderground v.1.15,2013-05-14 14:50:00,
2013-05-14 10:55:00,54.6,25.3,30.13,WSW,254,1.0,9.0,32,0.00,,,0.00,0,Wunderground v.1.15,2013-05-14 14:55:00,
2013-05-14 11:00:00,54.8,23.9,30.13,SW,229,3.0,3.0,30,0.00,,,0.00,0,Wunderground v.1.15,2013-05-14 15:00:00,
2013-05-14 11:05:00,54.4,25.1,30.13,NNW,341,8.0,13.0,32,0.00,,,0.00,0,Wunderground v.1.15,2013-05-14 15:05:00,
2013-05-14 11:10:00,54.3,25.0,30.12,WSW,257,2.0,4.0,32,0.00,,,0.00,0,Wunderground v.1.15,2013-05-14 15:10:00,
2013-05-14 11:15:00,55.3,25.9,30.12,NNW,345,13.0,13.0,32,0.00,,,0.00,0,Wunderground v.1.15,2013-05-14 15:15:00,
2013-05-14 11:20:00,55.4,25.2,30.12,North,356,6.0,9.0,31,0.00,,,0.00,0,Wunderground v.1.15,2013-05-14 15:20:00,
2013-05-14 11:25:00,55.5,26.1,30.12,North,352,1.0,10.0,32,0.00,,,0.00,0,Wunderground v.1.15,2013-05-14 15:25:00,
2013-05-14 11:30:00,55.8,26.3,30.12,SW,217,8.0,10.0,32,0.00,,,0.00,0,Wunderground v.1.15,2013-05-14 15:30:00,
2013-05-14 11:35:00,55.2,26.6,30.11,SW,232,7.0,10.0,33,0.00,,,0.00,0,Wunderground v.1.15,2013-05-14 15:35:00,
2013-05-14 11:40:00,55.5,26.1,30.12,NNW,327,2.0,5.0,32,0.00,,,0.00,0,Wunderground v.1.15,2013-05-14 15:40:00,
2013-05-14 11:45:00,56.1,25.1,30.12,West,259,1.0,8.0,30,0.00,,,0.00,0,Wunderground v.1.15,2013-05-14 15:45:00,
2013-05-14 11:50:00,56.1,25.8,30.11,NNW,332,4.0,15.0,31,0.00,,,0.00,0,Wunderground v.1.15,2013-05-14 15:50:00,
2013-05-14 11:55:00,56.0,25.8,30.11,NNW,336,6.0,15.0,31,0.00,,,0.00,0,Wunderground v.1.15,2013-05-14 15:55:00,
2013-05-14 12:00:00,56.2,25.1,30.11,North,357,1.0,9.0,30,0.00,,,0.00,0,Wunderground v.1.15,2013-05-14 16:00:00,
2013-05-14 12:05:00,56.4,26.1,30.11,SSE,163,2.0,9.0,31,0.00,,,0.00,0,Wunderground v.1.15,2013-05-14 16:05:00,
2013-05-14 12:10:00,56.7,25.6,30.10,NNW,329,5.0,6.0,30,0.00,,,0.00,0,Wunderground v.1.15,2013-05-14 16:10:00,
2013-05-14 12:15:00,56.2,25.9,30.10,East,87,4.0,7.0,31,0.00,,,0.00,0,Wunderground v.1.15,2013-05-14 16:15:00,
2013-05-14 12:20:00,57.2,25.2,30.10,SSW,209,4.0,8.0,29,0.00,,,0.00,0,Wunderground v.1.15,2013-05-14 16:20:00,
2013-05-14 12:25:00,57.7,24.8,30.10,SSW,205,1.0,8.0,28,0.00,,,0.00,0,Wunderground v.1.15,2013-05-14 16:25:00,
2013-05-14 12:31:00,57.8,25.7,30.10,NNW,340,5.0,11.0,29,0.00,,,0.00,0,Wunderground v.1.15,2013-05-14 16:31:00,
2013-05-14 12:36:00,57.9,25.0,30.10,SW,221,4.0,11.0,28,0.00,,,0.00,0,Wunderground v.1.15,2013-05-14 16:36:00,
2013-05-14 12:41:00,57.6,24.7,30.10,NNW,331,9.0,10.0,28,0.00,,,0.00,0,Wunderground v.1.15,2013-05-14 16:41:00,
2013-05-14 12:46:00,57.6,26.4,30.10,NNW,341,2.0,13.0,30,0.00,,,0.00,0,Wunderground v.1.15,2013-05-14 16:46:00,
2013-05-14 12:51:00,58.3,26.1,30.10,NNW,337,5.0,11.0,29,0.00,,,0.00,0,Wunderground v.1.15,2013-05-14 16:51:00,
2013-05-14 12:56:00,58.3,26.1,30.10,SSW,194,2.0,11.0,29,0.00,,,0.00,0,Wunderground v.1.15,2013-05-14 16:56:00,
2013-05-14 13:01:00,58.3,25.3,30.10,NW,305,7.0,10.0,28,0.00,,,0.00,0,Wunderground v.1.15,2013-05-14 17:01:00,
2013-05-14 13:06:00,58.3,25.3,30.10,South,188,2.0,10.0,28,0.00,,,0.00,0,Wunderground v.1.15,2013-05-14 17:06:00,
2013-05-14 13:11:00,59.3,27.0,30.10,WSW,239,1.0,10.0,29,0.00,,,0.00,0,Wunderground v.1.15,2013-05-14 17:11:00,
2013-05-14 13:16:00,59.7,25.6,30.10,NW,317,6.0,10.0,27,0.00,,,0.00,0,Wunderground v.1.15,2013-05-14 17:16:00,
2013-05-14 13:21:00,58.9,24.0,30.10,West,281,0.0,6.0,26,0.00,,,0.00,0,Wunderground v.1.15,2013-05-14 17:21:00,
2013-05-14 13:26:00,58.4,26.2,30.10,NW,320,6.0,8.0,29,0.00,,,0.00,0,Wunderground v.1.15,2013-05-14 17:26:00,
2013-05-14 13:31:00,57.9,25.0,30.10,North,351,6.0,10.0,28,0.00,,,0.00,0,Wunderground v.1.15,2013-05-14 17:31:00,
2013-05-14 13:36:00,57.5,25.5,30.10,NNW,348,6.0,10.0,29,0.00,,,0.00,0,Wunderground v.1.15,2013-05-14 17:36:00,
2013-05-14 13:41:00,57.7,26.4,30.10,North,0,1.0,1.0,30,0.00,,,0.00,0,Wunderground v.1.15,2013-05-14 17:41:00,
2013-05-14 13:46:00,58.2,26.1,30.10,NNW,343,9.0,13.0,29,0.00,,,0.00,0,Wunderground v.1.15,2013-05-14 17:46:00,
2013-05-14 13:51:00,58.7,23.9,30.10,NNW,342,7.0,7.0,26,0.00,,,0.00,0,Wunderground v.1.15,2013-05-14 17:51:00,
2013-05-14 13:56:00,59.0,25.0,30.10,NNW,332,9.0,12.0,27,0.00,,,0.00,0,Wunderground v.1.15,2013-05-14 17:56:00,
2013-05-14 14:01:00,59.3,25.3,30.10,WSW,239,1.0,10.0,27,0.00,,,0.00,0,Wunderground v.1.15,2013-05-14 18:01:00,
2013-05-14 14:06:00,59.0,25.0,30.10,WSW,244,0.0,10.0,27,0.00,,,0.00,0,Wunderground v.1.15,2013-05-14 18:06:00,
2013-05-14 14:11:00,59.0,25.9,30.09,SE,129,0.0,3.0,28,0.00,,,0.00,0,Wunderground v.1.15,2013-05-14 18:11:00,
2013-05-14 14:16:00,58.8,25.7,30.09,WSW,256,3.0,7.0,28,0.00,,,0.00,0,Wunderground v.1.15,2013-05-14 18:16:00,
2013-05-14 14:21:00,59.5,26.3,30.09,NNW,340,4.0,8.0,28,0.00,,,0.00,0,Wunderground v.1.15,2013-05-14 18:21:00,
2013-05-14 14:26:00,59.5,26.3,30.09,SE,138,5.0,8.0,28,0.00,,,0.00,0,Wunderground v.1.15,2013-05-14 18:26:00,
2013-05-14 14:31:00,59.8,25.7,30.09,North,351,10.0,14.0,27,0.00,,,0.00,0,Wunderground v.1.15,2013-05-14 18:31:00,
2013-05-14 14:36:00,59.6,25.5,30.09,NNW,332,1.0,14.0,27,0.00,,,0.00,0,Wunderground v.1.15,2013-05-14 18:36:00,
2013-05-14 14:41:00,60.3,27.0,30.09,WNW,297,3.0,9.0,28,0.00,,,0.00,0,Wunderground v.1.15,2013-05-14 18:41:00,
2013-05-14 14:46:00,60.1,26.0,30.09,North,351,10.0,17.0,27,0.00,,,0.00,0,Wunderground v.1.15,2013-05-14 18:46:00,
2013-05-14 14:51:00,60.1,26.0,30.08,NNW,337,4.0,10.0,27,0.00,,,0.00,0,Wunderground v.1.15,2013-05-14 18:51:00,
2013-05-14 14:56:00,60.0,25.9,30.08,NW,305,2.0,10.0,27,0.00,,,0.00,0,Wunderground v.1.15,2013-05-14 18:56:00,
2013-05-14 15:01:00,59.7,24.7,30.08,WNW,298,1.0,8.0,26,0.00,,,0.00,0,Wunderground v.1.15,2013-05-14 19:01:00,
2013-05-14 15:06:00,59.3,25.3,30.08,NNW,346,2.0,8.0,27,0.00,,,0.00,0,Wunderground v.1.15,2013-05-14 19:06:00,
2013-05-14 15:11:00,59.2,24.3,30.08,SSW,202,3.0,6.0,26,0.00,,,0.00,0,Wunderground v.1.15,2013-05-14 19:11:00,
2013-05-14 15:16:00,59.1,25.1,30.08,North,11,3.0,7.0,27,0.00,,,0.00,0,Wunderground v.1.15,2013-05-14 19:16:00,
2013-05-14 15:21:00,59.4,24.5,30.07,SW,235,1.0,4.0,26,0.00,,,0.00,0,Wunderground v.1.15,2013-05-14 19:21:00,
2013-05-14 15:26:00,60.0,25.0,30.08,West,268,4.0,11.0,26,0.00,,,0.00,0,Wunderground v.1.15,2013-05-14 19:26:00,
2013-05-14 15:31:00,59.8,25.7,30.07,South,184,7.0,7.0,27,0.00,,,0.00,0,Wunderground v.1.15,2013-05-14 19:31:00,
2013-05-14 15:36:00,60.1,25.1,30.07,SSW,211,3.0,8.0,26,0.00,,,0.00,0,Wunderground v.1.15,2013-05-14 19:36:00,
2013-05-14 15:41:00,60.3,25.2,30.07,WNW,300,1.0,1.0,26,0.00,,,0.00,0,Wunderground v.1.15,2013-05-14 19:41:00,
2013-05-14 15:46:00,61.3,26.1,30.07,NNW,327,4.0,10.0,26,0.00,,,0.00,0,Wunderground v.1.15,2013-05-14 19:46:00,
2013-05-14 15:51:00,60.9,26.7,30.07,NNW,329,4.0,13.0,27,0.00,,,0.00,0,Wunderground v.1.15,2013-05-14 19:51:00,
2013-05-14 15:57:00,61.1,26.8,30.06,NNW,333,0.0,13.0,27,0.00,,,0.00,0,Wunderground v.1.15,2013-05-14 19:57:00,
2013-05-14 16:02:00,62.3,26.9,30.06,North,355,0.0,10.0,26,0.00,,,0.00,0,Wunderground v.1.15,2013-05-14 20:02:00,
2013-05-14 16:07:00,62.8,27.4,30.05,WSW,257,5.0,10.0,26,0.00,,,0.00,0,Wunderground v.1.15,2013-05-14 20:07:00,
2013-05-14 16:12:00,62.0,25.7,30.05,SW,218,2.0,5.0,25,0.00,,,0.00,0,Wunderground v.1.15,2013-05-14 20:12:00,
2013-05-14 16:17:00,61.9,26.6,30.06,SSW,193,2.0,6.0,26,0.00,,,0.00,0,Wunderground v.1.15,2013-05-14 20:17:00,
2013-05-14 16:22:00,61.8,27.4,30.06,West,269,3.0,12.0,27,0.00,,,0.00,0,Wunderground v.1.15,2013-05-14 20:22:00,
2013-05-14 16:27:00,62.1,26.8,30.06,NW,308,6.0,12.0,26,0.00,,,0.00,0,Wunderground v.1.15,2013-05-14 20:27:00,
2013-05-14 16:32:00,61.2,25.1,30.05,SSE,159,1.0,6.0,25,0.00,,,0.00,0,Wunderground v.1.15,2013-05-14 20:32:00,
2013-05-14 16:37:00,61.4,26.2,30.05,WSW,257,3.0,8.0,26,0.00,,,0.00,0,Wunderground v.1.15,2013-05-14 20:37:00,
2013-05-14 16:42:00,61.8,26.5,30.05,NW,307,5.0,8.0,26,0.00,,,0.00,0,Wunderground v.1.15,2013-05-14 20:42:00,
2013-05-14 16:47:00,61.6,25.4,30.05,ESE,103,3.0,9.0,25,0.00,,,0.00,0,Wunderground v.1.15,2013-05-14 20:47:00,
2013-05-14 16:52:00,61.2,25.1,30.05,WNW,297,5.0,6.0,25,0.00,,,0.00,0,Wunderground v.1.15,2013-05-14 20:52:00,
2013-05-14 16:57:00,62.0,26.7,30.04,West,266,0.0,7.0,26,0.00,,,0.00,0,Wunderground v.1.15,2013-05-14 20:57:00,
2013-05-14 17:02:00,62.2,26.9,30.04,SSE,153,1.0,3.0,26,0.00,,,0.00,0,Wunderground v.1.15,2013-05-14 21:02:00,
2013-05-14 17:07:00,63.5,23.9,30.05,NNW,328,1.0,9.0,22,0.00,,,0.00,0,Wunderground v.1.15,2013-05-14 21:07:00,
2013-05-14 17:12:00,62.9,25.5,30.04,WNW,286,4.0,6.0,24,0.00,,,0.00,0,Wunderground v.1.15,2013-05-14 21:12:00,
2013-05-14 17:17:00,62.6,25.3,30.04,NW,322,0.0,8.0,24,0.00,,,0.00,0,Wunderground v.1.15,2013-05-14 21:17:00,
2013-05-14 17:22:00,63.5,26.0,30.04,NNW,327,1.0,5.0,24,0.00,,,0.00,0,Wunderground v.1.15,2013-05-14 21:22:00,
2013-05-14 17:27:00,64.1,24.4,30.04,NNW,337,7.0,13.0,22,0.00,,,0.00,0,Wunderground v.1.15,2013-05-14 21:27:00,
2013-05-14 17:32:00,63.2,25.8,30.04,SW,214,5.0,5.0,24,0.00,,,0.00,0,Wunderground v.1.15,2013-05-14 21:32:00,
2013-05-14 17:37:00,62.5,25.2,30.04,WSW,240,3.0,8.0,24,0.00,,,0.00,0,Wunderground v.1.15,2013-05-14 21:37:00,
2013-05-14 17:42:00,61.7,24.5,30.04,SSW,202,3.0,5.0,24,0.00,,,0.00,0,Wunderground v.1.15,2013-05-14 21:42:00,
2013-05-14 17:47:00,62.7,26.3,30.04,East,88,0.0,5.0,25,0.00,,,0.00,0,Wunderground v.1.15,2013-05-14 21:47:00,
2013-05-14 17:52:00,62.3,26.0,30.04,West,281,4.0,7.0,25,0.00,,,0.00,0,Wunderground v.1.15,2013-05-14 21:52:00,
2013-05-14 17:57:00,62.1,26.8,30.04,WSW,242,6.0,7.0,26,0.00,,,0.00,0,Wunderground v.1.15,2013-05-14 21:57:00,
2013-05-14 18:02:00,62.3,26.0,30.04,West,280,5.0,5.0,25,0.00,,,0.00,0,Wunderground v.1.15,2013-05-14 22:02:00,
2013-05-14 18:07:00,62.2,24.9,30.04,NNW,334,5.0,10.0,24,0.00,,,0.00,0,Wunderground v.1.15,2013-05-14 22:07:00,
2013-05-14 18:12:00,62.0,25.7,30.04,West,280,3.0,4.0,25,0.00,,,0.00,0,Wunderground v.1.15,2013-05-14 22:12:00,
2013-05-14 18:17:00,61.4,26.2,30.04,SW,222,1.0,6.0,26,0.00,,,0.00,0,Wunderground v.1.15,2013-05-14 22:17:00,
2013-05-14 18:22:00,61.7,27.3,30.04,WSW,258,0.0,4.0,27,0.00,,,0.00,0,Wunderground v.1.15,2013-05-14 22:22:00,
2013-05-14 18:27:00,61.8,27.4,30.04,NNW,331,4.0,6.0,27,0.00,,,0.00,0,Wunderground v.1.15,2013-05-14 22:27:00,
2013-05-14 18:32:00,61.7,26.4,30.03,NW,313,3.0,7.0,26,0.00,,,0.00,0,Wunderground v.1.15,2013-05-14 22:32:00,
2013-05-14 18:37:00,61.2,26.0,30.04,SSW,209,2.0,8.0,26,0.00,,,0.00,0,Wunderground v.1.15,2013-05-14 22:37:00,
2013-05-14 18:42:00,61.4,26.2,30.04,NNW,336,5.0,5.0,26,0.00,,,0.00,0,Wunderground v.1.15,2013-05-14 22:42:00,
2013-05-14 18:47:00,61.0,25.8,30.04,ESE,118,1.0,5.0,26,0.00,,,0.00,0,Wunderground v.1.15,2013-05-14 22:47:00,
2013-05-14 18:52:00,61.1,26.8,30.04,WNW,303,1.0,5.0,27,0.00,,,0.00,0,Wunderground v.1.15,2013-05-14 22:52:00,
2013-05-14 18:57:00,60.8,26.6,30.04,SW,221,3.0,6.0,27,0.00,,,0.00,0,Wunderground v.1.15,2013-05-14 22:57:00,
2013-05-14 19:02:00,60.6,26.4,30.04,NW,304,0.0,2.0,27,0.00,,,0.00,0,Wunderground v.1.15,2013-05-14 23:02:00,
2013-05-14 19:07:00,60.4,26.2,30.04,SSE,162,0.0,3.0,27,0.00,,,0.00,0,Wunderground v.1.15,2013-05-14 23:07:00,
2013-05-14 19:12:00,60.3,26.1,30.05,SSE,161,1.0,3.0,27,0.00,,,0.00,0,Wunderground v.1.15,2013-05-14 23:12:00,
2013-05-14 19:17:00,59.9,25.8,30.05,SSE,158,0.0,4.0,27,0.00,,,0.00,0,Wunderground v.1.15,2013-05-14 23:17:00,
2013-05-14 19:22:00,59.6,25.5,30.04,East,80,3.0,4.0,27,0.00,,,0.00,0,Wunderground v.1.15,2013-05-14 23:22:00,
2013-05-14 19:27:00,59.0,25.0,30.04,West,274,2.0,5.0,27,0.00,,,0.00,0,Wunderground v.1.15,2013-05-14 23:27:00,
2013-05-14 19:32:00,58.6,24.7,30.04,NNW,340,4.0,6.0,27,0.00,,,0.00,0,Wunderground v.1.15,2013-05-14 23:32:00,
2013-05-14 19:37:00,58.2,26.1,30.04,North,349,0.0,6.0,29,0.00,,,0.00,0,Wunderground v.1.15,2013-05-14 23:37:00,
2013-05-14 19:42:00,57.5,26.3,30.04,North,349,0.0,1.0,30,0.00,,,0.00,0,Wunderground v.1.15,2013-05-14 23:42:00,
2013-05-14 19:47:00,56.9,27.3,30.04,North,349,0.0,1.0,32,0.00,,,0.00,0,Wunderground v.1.15,2013-05-14 23:47:00,
2013-05-14 19:52:00,56.1,27.4,30.04,North,349,0.0,1.0,33,0.00,,,0.00,0,Wunderground v.1.15,2013-05-14 23:52:00,
2013-05-14 19:57:00,55.5,27.6,30.05,North,349,0.0,1.0,34,0.00,,,0.00,0,Wunderground v.1.15,2013-05-14 23:57:00,
2013-05-14 20:02:00,54.6,27.5,30.05,North,349,0.0,0.0,35,0.00,,,0.00,0,Wunderground v.1.15,2013-05-15 00:02:00,
2013-05-14 20:07:00,54.0,28.3,30.04,North,349,0.0,0.0,37,0.00,,,0.00,0,Wunderground v.1.15,2013-05-15 00:07:00,
2013-05-14 20:12:00,53.5,28.5,30.05,North,349,0.0,0.0,38,0.00,,,0.00,0,Wunderground v.1.15,2013-05-15 00:12:00,
2013-05-14 20:17:00,52.8,27.2,30.04,North,349,0.0,0.0,37,0.00,,,0.00,0,Wunderground v.1.15,2013-05-15 00:17:00,
2013-05-14 20:22:00,52.2,27.3,30.04,North,349,0.0,0.0,38,0.00,,,0.00,0,Wunderground v.1.15,2013-05-15 00:22:00,
2013-05-14 20:27:00,51.6,27.4,30.04,North,349,0.0,0.0,39,0.00,,,0.00,0,Wunderground v.1.15,2013-05-15 00:27:00,
2013-05-14 20:32:00,51.2,27.1,30.04,North,349,0.0,0.0,39,0.00,,,0.00,0,Wunderground v.1.15,2013-05-15 00:32:00,
2013-05-14 20:37:00,50.8,27.9,30.04,North,349,0.0,1.0,41,0.00,,,0.00,0,Wunderground v.1.15,2013-05-15 00:37:00,
2013-05-14 20:42:00,50.5,28.2,30.05,North,349,0.0,0.0,42,0.00,,,0.00,0,Wunderground v.1.15,2013-05-15 00:42:00,
2013-05-14 20:48:00,50.0,28.4,30.05,North,349,0.0,0.0,43,0.00,,,0.00,0,Wunderground v.1.15,2013-05-15 00:48:00,
2013-05-14 20:53:00,49.6,28.6,30.05,North,349,0.0,0.0,44,0.00,,,0.00,0,Wunderground v.1.15,2013-05-15 00:53:00,
2013-05-14 20:58:00,49.1,28.1,30.05,North,349,0.0,1.0,44,0.00,,,0.00,0,Wunderground v.1.15,2013-05-15 00:58:00,
2013-05-14 21:03:00,48.7,28.8,30.05,North,349,0.0,0.0,46,0.00,,,0.00,0,Wunderground v.1.15,2013-05-15 01:03:00,
2013-05-14 21:08:00,48.4,28.5,30.05,North,349,0.0,0.0,46,0.00,,,0.00,0,Wunderground v.1.15,2013-05-15 01:08:00,
2013-05-14 21:14:00,48.0,28.7,30.06,North,349,0.0,0.0,47,0.00,,,0.00,0,Wunderground v.1.15,2013-05-15 01:14:00,
2013-05-14 21:19:00,47.6,27.8,30.06,North,349,0.0,0.0,46,0.00,,,0.00,0,Wunderground v.1.15,2013-05-15 01:19:00,
2013-05-14 21:24:00,47.3,27.5,30.06,North,349,0.0,0.0,46,0.00,,,0.00,0,Wunderground v.1.15,2013-05-15 01:24:00,
2013-05-14 21:29:00,47.0,28.3,30.06,North,349,0.0,0.0,48,0.00,,,0.00,0,Wunderground v.1.15,2013-05-15 01:29:00,
2013-05-14 21:34:00,46.8,29.1,30.06,North,349,0.0,0.0,50,0.00,,,0.00,0,Wunderground v.1.15,2013-05-15 01:34:00,
2013-05-14 21:39:00,46.6,28.9,30.06,North,349,0.0,0.0,50,0.00,,,0.00,0,Wunderground v.1.15,2013-05-15 01:39:00,
2013-05-14 21:44:00,46.4,28.8,30.06,North,349,0.0,0.0,50,0.00,,,0.00,0,Wunderground v.1.15,2013-05-15 01:44:00,
2013-05-14 21:49:00,46.1,28.0,30.07,North,349,0.0,0.0,49,0.00,,,0.00,0,Wunderground v.1.15,2013-05-15 01:49:00,
2013-05-14 21:54:00,45.9,28.3,30.07,North,349,0.0,0.0,50,0.00,,,0.00,0,Wunderground v.1.15,2013-05-15 01:54:00,
2013-05-14 21:59:00,45.8,28.2,30.07,North,349,0.0,0.0,50,0.00,,,0.00,0,Wunderground v.1.15,2013-05-15 01:59:00,
2013-05-14 22:04:00,45.6,28.5,30.07,North,349,0.0,2.0,51,0.00,,,0.00,0,Wunderground v.1.15,2013-05-15 02:04:00,
2013-05-14 22:09:00,45.4,28.3,30.08,North,349,0.0,2.0,51,0.00,,,0.00,0,Wunderground v.1.15,2013-05-15 02:09:00,
2013-05-14 22:14:00,45.2,27.6,30.08,North,349,0.0,0.0,50,0.00,,,0.00,0,Wunderground v.1.15,2013-05-15 02:14:00,
2013-05-14 22:19:00,45.1,28.0,30.08,North,349,0.0,0.0,51,0.00,,,0.00,0,Wunderground v.1.15,2013-05-15 02:19:00,
2013-05-14 22:24:00,45.0,27.9,30.08,North,349,0.0,0.0,51,0.00,,,0.00,0,Wunderground v.1.15,2013-05-15 02:24:00,
2013-05-14 22:29:00,44.9,27.8,30.08,North,349,0.0,0.0,51,0.00,,,0.00,0,Wunderground v.1.15,2013-05-15 02:29:00,
2013-05-14 22:34:00,44.7,27.7,30.08,North,349,0.0,0.0,51,0.00,,,0.00,0,Wunderground v.1.15,2013-05-15 02:34:00,
2013-05-14 22:39:00,44.7,28.1,30.09,North,349,0.0,0.0,52,0.00,,,0.00,0,Wunderground v.1.15,2013-05-15 02:39:00,
2013-05-14 22:44:00,44.6,28.0,30.09,North,349,0.0,0.0,52,0.00,,,0.00,0,Wunderground v.1.15,2013-05-15 02:44:00,
2013-05-14 22:49:00,44.5,28.0,30.09,North,349,0.0,1.0,52,0.00,,,0.00,0,Wunderground v.1.15,2013-05-15 02:49:00,
2013-05-14 22:54:00,44.5,28.0,30.09,North,349,0.0,2.0,52,0.00,,,0.00,0,Wunderground v.1.15,2013-05-15 02:54:00,
2013-05-14 22:59:00,44.5,28.4,30.09,North,349,0.0,2.0,53,0.00,,,0.00,0,Wunderground v.1.15,2013-05-15 02:59:00,
2013-05-14 23:04:00,44.5,28.4,30.09,North,349,0.0,0.0,53,0.00,,,0.00,0,Wunderground v.1.15,2013-05-15 03:04:00,
2013-05-14 23:09:00,44.5,28.4,30.09,North,349,0.0,1.0,53,0.00,,,0.00,0,Wunderground v.1.15,2013-05-15 03:09:00,
2013-05-14 23:14:00,44.4,28.3,30.09,North,349,0.0,0.0,53,0.00,,,0.00,0,Wunderground v.1.15,2013-05-15 03:14:00,
2013-05-14 23:19:00,44.3,28.2,30.09,North,349,0.0,0.0,53,0.00,,,0.00,0,Wunderground v.1.15,2013-05-15 03:19:00,
2013-05-14 23:24:00,44.1,28.0,30.09,North,349,0.0,2.0,53,0.00,,,0.00,0,Wunderground v.1.15,2013-05-15 03:24:00,
2013-05-14 23:29:00,44.1,28.0,30.09,North,349,0.0,2.0,53,0.00,,,0.00,0,Wunderground v.1.15,2013-05-15 03:29:00,
2013-05-14 23:34:00,44.1,28.0,30.09,North,349,0.0,2.0,53,0.00,,,0.00,0,Wunderground v.1.15,2013-05-15 03:34:00,
2013-05-14 23:39:00,44.2,27.7,30.09,North,349,0.0,2.0,52,0.00,,,0.00,0,Wunderground v.1.15,2013-05-15 03:39:00,
2013-05-14 23:44:00,44.3,27.8,30.09,North,349,0.0,0.0,52,0.00,,,0.00,0,Wunderground v.1.15,2013-05-15 03:44:00,
2013-05-14 23:49:00,44.5,28.0,30.09,ESE,118,0.0,6.0,52,0.00,,,0.00,0,Wunderground v.1.15,2013-05-15 03:49:00,
2013-05-14 23:54:00,44.8,27.8,30.09,ESE,119,0.0,3.0,51,0.00,,,0.00,0,Wunderground v.1.15,2013-05-15 03:54:00,
2013-05-14 23:59:00,45.5,28.4,30.09,SE,134,0.0,5.0,51,0.00,,,0.00,0,Wunderground v.1.15,2013-05-15 03:59:00,